APRIZESAT 3 - Orbit

View from above orbital plane
View from above orbital plane
View from above satellite
View from above satellite

Ground track
Ground track

The orbit data is extracted from the following two-line orbital elements,

1 35686U 09041F   13143.84543823  .00001092  00000-0  13087-3 0  2189
2 35686 098.1105 077.7726 0078310 160.5424 233.4719 14.84099363206623
Epoch (UTC): 23 May 2013 20:17:25
Eccentricity: 0.0078310
inclination: 98.1105°
perigee height: 561 km
apogee height: 671 km
right ascension of ascending node: 77.7726°
argument of perigee: 160.5424°
revolutions per day: 14.84099363
mean anomaly at epoch: 233.4719°
orbit number at epoch: 20662

The dashed part of the orbit path shows where the satellite is in the earth's shadow,  

Developed and maintained by Chris Peat, Heavens-Above GmbH. Please read the updated FAQ before sending e-mail. Imprint. DLR